�������l�o���
Date,Time,MP-1(��Sv/h),MP-2(��Sv/h),MP-3(��Sv/h),MP-4(��Sv/h),MP-5(��Sv/h),MP-6(��Sv/h),MP-7(��Sv/h),MP-8(��Sv/h),����,����(m/s),���J
2022/07/29,00:00,0.583,0.828,0.527,0.987,0.707,0.337,0.585,0.551,�k,2.0,��
2022/07/29,00:10,0.584,0.830,0.529,0.988,0.707,0.336,0.584,0.551,�k,2.0,��
2022/07/29,00:20,0.585,0.829,0.528,0.989,0.704,0.336,0.584,0.550,�k,2.9,��
2022/07/29,00:30,0.585,0.829,0.528,0.989,0.705,0.338,0.585,0.551,�k,2.6,��
2022/07/29,00:40,0.584,0.830,0.526,0.989,0.705,0.337,0.583,0.550,�k�k��,2.2,��
2022/07/29,00:50,0.584,0.827,0.526,0.989,0.707,0.337,0.585,0.551,�k�k��,2.0,��
2022/07/29,01:00,0.583,0.830,0.529,0.989,0.706,0.338,0.585,0.551,�k�k��,1.4,��
2022/07/29,01:10,0.583,0.829,0.528,0.989,0.706,0.336,0.583,0.552,�k,1.4,��
2022/07/29,01:20,0.584,0.829,0.529,0.988,0.707,0.337,0.583,0.551,�k�k��,1.4,��
2022/07/29,01:30,0.585,0.829,0.528,0.988,0.706,0.338,0.583,0.551,�k,1.4,��
2022/07/29,01:40,0.583,0.830,0.528,0.990,0.707,0.337,0.582,0.552,�k,1.2,��
2022/07/29,01:50,0.583,0.831,0.529,0.989,0.706,0.337,0.583,0.551,�k�k��,1.9,��
2022/07/29,02:00,0.584,0.829,0.530,0.988,0.707,0.337,0.584,0.550,�k�k��,2.0,��
2022/07/29,02:10,0.583,0.831,0.528,0.990,0.707,0.337,0.582,0.550,�k�k��,1.5,��
2022/07/29,02:20,0.584,0.829,0.529,0.987,0.706,0.337,0.582,0.551,�k�k��,1.5,��
2022/07/29,02:30,0.585,0.829,0.528,0.987,0.709,0.337,0.583,0.551,�k,1.4,��
2022/07/29,02:40,0.585,0.829,0.530,0.991,0.706,0.337,0.583,0.552,�k,2.0,��
2022/07/29,02:50,0.585,0.829,0.529,0.988,0.707,0.337,0.582,0.551,�k,2.0,��
2022/07/29,03:00,0.583,0.829,0.528,0.988,0.708,0.336,0.583,0.551,�k,2.3,��
2022/07/29,03:10,0.585,0.830,0.527,0.988,0.706,0.338,0.582,0.551,�k,2.0,��
2022/07/29,03:20,0.584,0.829,0.529,0.990,0.707,0.337,0.582,0.551,�k,2.2,��
2022/07/29,03:30,0.584,0.828,0.528,0.990,0.706,0.336,0.583,0.552,�k,2.0,��
2022/07/29,03:40,0.583,0.830,0.530,0.988,0.706,0.336,0.581,0.554,�k,2.2,��
2022/07/29,03:50,0.585,0.829,0.528,0.989,0.707,0.337,0.583,0.550,�k,1.7,��
2022/07/29,04:00,0.585,0.830,0.528,0.990,0.706,0.338,0.582,0.551,�k,1.5,��
2022/07/29,04:10,0.584,0.830,0.528,0.988,0.707,0.336,0.583,0.552,�k,1.2,��
2022/07/29,04:20,0.583,0.830,0.528,0.987,0.706,0.337,0.582,0.551,�k,1.4,��
2022/07/29,04:30,0.583,0.831,0.528,0.988,0.706,0.337,0.583,0.550,�k,1.4,��
2022/07/29,04:40,0.584,0.831,0.529,0.990,0.707,0.337,0.581,0.552,�k,1.4,��
2022/07/29,04:50,0.583,0.829,0.528,0.989,0.706,0.337,0.582,0.551,�k,2.3,��
2022/07/29,05:00,0.585,0.829,0.528,0.988,0.706,0.337,0.581,0.552,�k,4.2,��
2022/07/29,05:10,0.582,0.828,0.529,0.989,0.706,0.336,0.582,0.552,�k,3.7,��
2022/07/29,05:20,0.582,0.828,0.529,0.989,0.707,0.337,0.583,0.551,�k,2.6,��
2022/07/29,05:30,0.584,0.830,0.527,0.991,0.707,0.337,0.582,0.551,�k,2.3,��
2022/07/29,05:40,0.584,0.828,0.529,0.987,0.706,0.337,0.582,0.553,�k,2.2,��
2022/07/29,05:50,0.583,0.830,0.530,0.988,0.708,0.337,0.581,0.551,�k,3.0,��
2022/07/29,06:00,0.584,0.830,0.528,0.989,0.707,0.336,0.582,0.551,�k,2.2,��
2022/07/29,06:10,0.584,0.829,0.528,0.989,0.708,0.337,0.583,0.551,�k,2.6,��
2022/07/29,06:20,0.582,0.829,0.528,0.991,0.707,0.337,0.583,0.551,�k,3.2,��
2022/07/29,06:30,0.584,0.828,0.528,0.989,0.709,0.338,0.582,0.551,�k,3.2,��
2022/07/29,06:40,0.584,0.828,0.528,0.989,0.707,0.335,0.583,0.550,�k,2.2,��
2022/07/29,06:50,0.584,0.828,0.528,0.988,0.706,0.336,0.583,0.551,�k,1.7,��
2022/07/29,07:00,0.583,0.829,0.529,0.989,0.707,0.335,0.582,0.553,�k,2.0,��
2022/07/29,07:10,0.584,0.830,0.529,0.988,0.705,0.337,0.581,0.551,�k�k��,1.4,��
2022/07/29,07:20,0.583,0.831,0.531,0.989,0.707,0.336,0.583,0.551,�k�k��,1.4,��
2022/07/29,07:30,0.583,0.827,0.529,0.989,0.706,0.337,0.582,0.551,�k�k��,1.1,��
2022/07/29,07:40,0.584,0.827,0.530,0.989,0.707,0.338,0.583,0.551,�k,1.2,��
2022/07/29,07:50,0.585,0.829,0.528,0.990,0.707,0.338,0.584,0.554,�k�k��,1.4,��
2022/07/29,08:00,0.584,0.828,0.528,0.987,0.706,0.336,0.583,0.551,�k�k��,1.5,��
2022/07/29,08:10,0.584,0.827,0.526,0.990,0.706,0.335,0.584,0.551,�k,1.7,��
2022/07/29,08:20,0.584,0.825,0.530,0.990,0.706,0.334,0.583,0.551,�k,1.5,��
2022/07/29,08:30,0.586,0.826,0.527,0.990,0.706,0.334,0.581,0.551,�k�k��,1.4,��
2022/07/29,08:40,0.584,0.826,0.529,0.992,0.705,0.335,0.582,0.550,�k��,0.9,��
2022/07/29,08:50,0.585,0.827,0.529,0.990,0.705,0.335,0.583,0.548,�k��,1.7,��
2022/07/29,09:00,0.586,0.827,0.530,0.988,0.708,0.334,0.581,0.549,�k�k��,1.9,��
2022/07/29,09:10,0.585,0.826,0.528,0.991,0.706,0.334,0.583,0.549,�k��,1.2,��
2022/07/29,09:20,0.585,0.827,0.530,0.989,0.706,0.335,0.583,0.548,��,1.4,��
2022/07/29,09:30,0.585,0.828,0.529,0.990,0.705,0.335,0.583,0.549,��,0.9,��
2022/07/29,09:40,0.586,0.828,0.527,0.989,0.707,0.335,0.581,0.549,���쓌,0.8,��
2022/07/29,09:50,0.587,0.829,0.529,0.989,0.708,0.335,0.584,0.549,��쓌,0.6,��
2022/07/29,10:00,0.587,0.830,0.527,0.991,0.707,0.335,0.582,0.549,���쓌,1.2,��
2022/07/29,10:10,0.586,0.827,0.528,0.992,0.709,0.334,0.585,0.548,��,1.2,��
2022/07/29,10:20,0.588,0.825,0.530,0.991,0.708,0.337,0.585,0.551,���쓌,1.2,��
2022/07/29,10:30,0.584,0.826,0.530,0.992,0.708,0.338,0.582,0.551,��,1.4,��
2022/07/29,10:40,0.586,0.831,0.528,0.991,0.709,0.338,0.584,0.551,���쓌,2.6,��
2022/07/29,10:50,0.587,0.830,0.529,0.990,0.708,0.336,0.584,0.553,��,2.0,��
2022/07/29,11:00,0.586,0.830,0.528,0.990,0.709,0.338,0.585,0.551,��,2.2,��
2022/07/29,11:10,0.588,0.829,0.531,0.991,0.708,0.337,0.586,0.551,��,2.6,��
2022/07/29,11:20,0.587,0.829,0.528,0.992,0.707,0.337,0.586,0.550,�쓌,2.6,��
2022/07/29,11:30,0.589,0.827,0.529,0.994,0.706,0.338,0.585,0.550,��,2.3,��
2022/07/29,11:40,0.588,0.828,0.530,0.993,0.708,0.338,0.585,0.552,��,3.1,��
2022/07/29,11:50,0.586,0.830,0.530,0.990,0.708,0.339,0.584,0.551,�k��,2.9,��
2022/07/29,12:00,0.588,0.829,0.530,0.992,0.709,0.338,0.584,0.551,���k��,2.5,��
2022/07/29,12:10,0.589,0.831,0.530,0.991,0.710,0.337,0.585,0.551,�k��,3.2,��
2022/07/29,12:20,0.589,0.832,0.529,0.989,0.709,0.336,0.586,0.551,���k��,2.5,��
2022/07/29,12:30,0.587,0.832,0.528,0.990,0.708,0.338,0.586,0.552,��,2.8,��
2022/07/29,12:40,0.589,0.830,0.529,0.989,0.711,0.338,0.586,0.550,���k��,3.5,��
2022/07/29,12:50,0.587,0.833,0.530,0.988,0.709,0.337,0.586,0.550,���k��,3.3,��
2022/07/29,13:00,0.588,0.832,0.529,0.990,0.709,0.338,0.585,0.551,�k��,3.6,��
2022/07/29,13:10,0.589,0.832,0.529,0.991,0.710,0.337,0.585,0.550,�k�k��,2.9,��
2022/07/29,13:20,0.589,0.833,0.529,0.989,0.710,0.339,0.586,0.551,���k��,3.0,��
2022/07/29,13:30,0.588,0.833,0.531,0.992,0.710,0.338,0.585,0.552,�k��,3.1,��
2022/07/29,13:40,0.589,0.832,0.531,0.992,0.711,0.337,0.585,0.551,�k��,2.5,��
2022/07/29,13:50,0.588,0.830,0.532,0.992,0.712,0.338,0.586,0.551,���k��,2.5,��
2022/07/29,14:00,0.587,0.829,0.531,0.992,0.711,0.338,0.585,0.551,�k�k��,2.6,��
2022/07/29,14:10,0.588,0.833,0.529,0.995,0.711,0.338,0.586,0.552,�k��,2.6,��
2022/07/29,14:20,0.589,0.832,0.531,0.994,0.711,0.337,0.584,0.552,�k�k��,2.3,��
2022/07/29,14:30,0.589,0.832,0.530,0.996,0.712,0.338,0.586,0.552,�k��,2.3,��
2022/07/29,14:40,0.588,0.832,0.530,0.995,0.713,0.337,0.587,0.552,���k��,2.6,��
2022/07/29,14:50,0.589,0.834,0.531,0.993,0.711,0.336,0.583,0.552,�k��,2.3,��
2022/07/29,15:00,0.589,0.833,0.530,0.994,0.712,0.337,0.585,0.552,�k��,2.3,��
2022/07/29,15:10,0.589,0.836,0.532,0.994,0.712,0.336,0.584,0.551,�k��,2.6,��
2022/07/29,15:20,0.590,0.832,0.531,0.995,0.713,0.336,0.584,0.551,�k��,2.5,��
2022/07/29,15:30,0.589,0.836,0.531,0.997,0.712,0.339,0.585,0.551,�k��,2.6,��
2022/07/29,15:40,0.588,0.835,0.531,0.996,0.710,0.339,0.584,0.551,�k�k��,2.3,��
2022/07/29,15:50,0.589,0.837,0.531,0.994,0.712,0.337,0.583,0.551,���k��,1.4,��
2022/07/29,16:00,0.589,0.834,0.529,0.997,0.712,0.337,0.585,0.552,���k��,1.2,��
2022/07/29,16:10,0.588,0.834,0.529,0.996,0.712,0.338,0.583,0.551,���k��,2.0,��
2022/07/29,16:20,0.589,0.833,0.530,0.995,0.712,0.338,0.583,0.552,�k�k��,1.5,��
2022/07/29,16:30,0.590,0.837,0.530,0.997,0.714,0.337,0.583,0.551,�k,1.1,��
2022/07/29,16:40,0.592,0.837,0.532,0.999,0.710,0.337,0.583,0.550,�k�k��,1.2,��
2022/07/29,16:50,0.591,0.836,0.530,0.997,0.712,0.338,0.584,0.551,���k��,1.5,��
2022/07/29,17:00,0.593,0.836,0.531,0.997,0.714,0.339,0.583,0.552,�k�k��,1.2,��
2022/07/29,17:10,0.592,0.837,0.531,0.998,0.713,0.340,0.583,0.551,�k��,1.7,��
2022/07/29,17:20,0.593,0.835,0.531,0.996,0.713,0.338,0.585,0.552,��,0.6,��
2022/07/29,17:30,0.594,0.838,0.530,0.998,0.713,0.339,0.585,0.551,��,1.4,��
2022/07/29,17:40,0.593,0.838,0.534,0.998,0.715,0.339,0.585,0.553,���k��,1.2,��
2022/07/29,17:50,0.595,0.834,0.534,0.997,0.714,0.341,0.585,0.552,���k��,1.2,��
2022/07/29,18:00,0.596,0.838,0.533,0.996,0.713,0.339,0.585,0.552,�k��,2.0,��
2022/07/29,18:10,0.593,0.836,0.532,0.998,0.714,0.340,0.584,0.553,��,0.9,��
2022/07/29,18:20,0.595,0.838,0.533,0.998,0.713,0.339,0.584,0.555,�쓌,0.9,��
2022/07/29,18:30,0.595,0.838,0.533,0.997,0.715,0.340,0.584,0.553,���쓌,1.1,��
2022/07/29,18:40,0.594,0.839,0.532,0.996,0.714,0.339,0.585,0.554,�쓌,1.4,��
2022/07/29,18:50,0.595,0.838,0.534,0.998,0.714,0.338,0.587,0.553,��쓌,1.2,��
2022/07/29,19:00,0.596,0.837,0.532,0.997,0.715,0.340,0.585,0.554,��쐼,1.4,��
2022/07/29,19:10,0.594,0.839,0.533,0.997,0.714,0.338,0.584,0.552,��쓌,0.9,��
2022/07/29,19:20,0.593,0.838,0.533,0.996,0.714,0.340,0.584,0.554,��,1.5,��
2022/07/29,19:30,0.595,0.839,0.534,0.997,0.715,0.340,0.586,0.553,��쓌,2.0,��
2022/07/29,19:40,0.594,0.838,0.532,0.997,0.714,0.338,0.585,0.553,��,1.2,��
2022/07/29,19:50,0.595,0.839,0.532,0.997,0.715,0.339,0.584,0.552,��,1.4,��
2022/07/29,20:00,0.597,0.838,0.531,0.996,0.713,0.340,0.585,0.553,��쓌,1.5,��
2022/07/29,20:10,0.594,0.837,0.530,0.997,0.715,0.339,0.586,0.554,��쐼,0.6,��
2022/07/29,20:20,0.594,0.837,0.533,0.998,0.713,0.340,0.586,0.553,��쐼,0.9,��
2022/07/29,20:30,0.596,0.839,0.534,0.998,0.713,0.339,0.585,0.554,��,1.2,��
2022/07/29,20:40,0.599,0.838,0.535,0.995,0.715,0.339,0.586,0.552,��쓌,1.4,��
2022/07/29,20:50,0.595,0.838,0.533,0.999,0.714,0.338,0.586,0.553,��쓌,1.0,��
2022/07/29,21:00,0.596,0.838,0.533,0.995,0.713,0.340,0.585,0.553,��,1.4,��
2022/07/29,21:10,0.595,0.839,0.533,0.996,0.713,0.339,0.584,0.553,��,1.9,��
2022/07/29,21:20,0.594,0.839,0.533,0.997,0.715,0.338,0.585,0.554,��,0.9,��
2022/07/29,21:30,0.595,0.838,0.533,0.999,0.713,0.339,0.587,0.551,-,CALM,��
2022/07/29,21:40,0.596,0.838,0.532,0.997,0.715,0.341,0.585,0.554,-,CALM,��
2022/07/29,21:50,0.595,0.839,0.534,0.997,0.714,0.339,0.586,0.553,-,CALM,��
2022/07/29,22:00,0.596,0.838,0.533,0.997,0.714,0.339,0.584,0.554,�k��,0.6,��
2022/07/29,22:10,0.594,0.840,0.533,0.998,0.716,0.339,0.586,0.552,�쓌,0.6,��
2022/07/29,22:20,0.594,0.838,0.534,0.997,0.714,0.340,0.585,0.554,-,CALM,��
2022/07/29,22:30,0.594,0.839,0.533,0.997,0.715,0.339,0.586,0.554,�k,0.6,��
2022/07/29,22:40,0.595,0.840,0.533,0.999,0.714,0.339,0.585,0.552,-,CALM,��
2022/07/29,22:50,0.596,0.840,0.534,0.999,0.714,0.340,0.585,0.554,-,CALM,��
2022/07/29,23:00,0.596,0.838,0.533,0.997,0.715,0.339,0.584,0.553,���쓌,1.1,��
2022/07/29,23:10,0.594,0.840,0.532,0.998,0.713,0.338,0.583,0.553,���k��,1.1,��
2022/07/29,23:20,0.595,0.839,0.534,0.997,0.715,0.341,0.585,0.552,�k��,0.6,��
2022/07/29,23:30,0.593,0.839,0.533,0.998,0.714,0.339,0.585,0.554,�k�k��,0.9,��
2022/07/29,23:40,0.593,0.840,0.532,0.998,0.714,0.339,0.587,0.555,�k�k��,0.9,��
2022/07/29,23:50,0.594,0.837,0.531,0.997,0.712,0.338,0.585,0.553,�k�k��,1.4,��
